CZ-6A DEB, 56606

Orbit data source: Space-Track

CZ-6A DEB, 56606 is space debris in SSO originally from a launch on Fri, 11 Nov 2022 UTC launched from the Taiyaun Space Center, China (TSC). Debris objects in space refer to the collection of defunct objects orbiting the Earth. Examples of debris include non-operational satellites, rocket bodies, and fragments generated from explosions, collisions, or faulty payload assembly.

Loading next visibility...
Identifier
56606, 2022-151AEE
Orbit
SSO
Country
Flag of CNCN / PRC
Related business
Manufacturer
SAST
Mission
Spacecraft
Bus & Motor
Unknown
Mass
Unknown
Launch date (UTC)
2022-11-11 (4 years ago)
Launch vehicle
Unknown
Launch site
Taiyaun Space Center, China (TSC)
Object type
Payload
Rocket body
Debris
Shape & HBR
Unknown shape, 0.1 m
Radar Cross Section
Small (<0.1 m²)

Expand to show TLE details & history
Last TLE update: 6 days ago

TLE from 6 days ago
0 CZ-6A DEB
1 56606U 22151AEE 26167.72877153  .00000095  00000-0  78704-4 0  9990
2 56606  98.8450 167.2932 0045714 342.9453  17.0178 14.09485558161753
Epoch: 2026-06-16T17:29Z
TLE epoch observation values (Epoch: 2026-06-16T17:29:25.860Z)
Latitude
-0.00008°
Longitude
-0.06117°
Altitude
832.391 km
Speed
7.453 km/s
True Right ascension
11h 09m 10s
True Declination
0° 00' 00"
Sunlit
Object was in daylight at epoch
Visualization orbit readout
Latitude
Unknown
Longitude
Unknown
Altitude
Unknown
Speed
Unknown
Apparent Right ascension
Unknown
Apparent Declination
Unknown
Sunlit
N/A
Visualization observer readout
Local Sidereal Time
21:42:52
Azimuth
Unknown
Elevation
Unknown
Doppler factor
Unknown
Orbital elements
Apogee altitude
891.392 km
Perigee altitude
825.231 km
Semi-major axis
7,236.449 km
Eccentricity
0.00457
Inclination
98.845°
RAAN
167.2932°
Arg. of periapsis
342.9453°
True anomaly
17.17195°
Mean anomaly
17.0178°
Eccentric anomaly
17.09479°
Mean motion
3.52578 °/min
Orbital period
102.11 mins
BSTAR
0.000078704
Loading maneuver chart data...
Computing Atmospheric mass density...
Loading historical data...
Loading historical data...
Loading historical data...
Loading historical data...
Loading historical data...
Loading historical data...
Loading historical data...

Documentation

Showing up to 5 results
|